Time,TemperatureF,DewpointF,PressureIn,WindDirection,WindDirectionDegrees,WindSpeedMPH,WindSpeedGustMPH,Humidity,HourlyPrecipIn,Conditions,Clouds,dailyrainin,SoftwareType,DateUTC
2013-07-12 00:00:00,59.5,55.6,30.03,NNW,336,0.0,0.0,87,0.00,,CLR,0.00,VWS V14.01,2013-07-12 05:00:00,
2013-07-12 00:05:00,59.7,55.5,30.02,NNW,336,0.0,0.0,86,0.00,,CLR,0.00,VWS V14.01,2013-07-12 05:05:00,
2013-07-12 00:10:00,59.8,55.3,30.02,NNW,336,0.0,0.0,85,0.00,,CLR,0.00,VWS V14.01,2013-07-12 05:10:00,
2013-07-12 00:15:00,60.2,55.0,30.02,NNW,336,0.0,0.0,83,0.00,,CLR,0.00,VWS V14.01,2013-07-12 05:15:00,
2013-07-12 00:20:00,60.3,55.1,30.02,NNW,336,0.0,0.0,83,0.00,,CLR,0.00,VWS V14.01,2013-07-12 05:20:00,
2013-07-12 00:25:00,59.9,55.4,30.03,NNW,336,0.0,0.0,85,0.00,,CLR,0.00,VWS V14.01,2013-07-12 05:25:00,
2013-07-12 00:30:00,59.6,55.1,30.03,NNW,336,0.0,0.0,85,0.00,,CLR,0.00,VWS V14.01,2013-07-12 05:30:00,
2013-07-12 00:35:00,59.4,54.9,30.03,NNW,336,0.0,0.0,85,0.00,,CLR,0.00,VWS V14.01,2013-07-12 05:35:00,
2013-07-12 00:40:00,59.0,54.8,30.03,NNW,336,0.0,0.0,86,0.00,,CLR,0.00,VWS V14.01,2013-07-12 05:40:00,
2013-07-12 00:45:00,58.7,54.8,30.03,NNW,336,0.0,0.0,87,0.00,,CLR,0.00,VWS V14.01,2013-07-12 05:45:00,
2013-07-12 00:50:00,58.5,54.7,30.03,NNW,336,0.0,0.0,87,0.00,,CLR,0.00,VWS V14.01,2013-07-12 05:50:00,
2013-07-12 00:55:00,58.6,54.4,30.03,NNW,336,0.0,0.0,86,0.00,,CLR,0.00,VWS V14.01,2013-07-12 05:55:00,
2013-07-12 01:00:00,58.8,54.6,30.03,NNW,336,0.0,0.0,86,0.00,,CLR,0.00,VWS V14.01,2013-07-12 06:00:00,
2013-07-12 01:05:00,58.7,54.2,30.03,NNW,336,0.0,0.0,85,0.00,,FEW250,0.00,VWS V14.01,2013-07-12 06:05:00,
2013-07-12 01:06:00,58.7,54.2,30.03,NNW,336,0.0,0.0,85,0.00,,CLR,0.00,VWS V14.01,2013-07-12 06:06:00,
2013-07-12 01:10:00,58.5,54.3,30.03,NNW,336,0.0,0.0,86,0.00,,FEW250,0.00,VWS V14.01,2013-07-12 06:10:00,
2013-07-12 01:11:00,58.4,54.2,30.03,NNW,336,0.0,0.0,86,0.00,,CLR,0.00,VWS V14.01,2013-07-12 06:11:00,
2013-07-12 01:15:00,58.2,54.3,30.03,NNW,336,0.0,0.0,87,0.00,,FEW250,0.00,VWS V14.01,2013-07-12 06:15:00,
2013-07-12 01:16:00,58.1,54.3,30.03,NNW,336,0.0,0.0,87,0.00,,CLR,0.00,VWS V14.01,2013-07-12 06:16:00,
2013-07-12 01:20:00,57.8,54.3,30.03,NNW,336,0.0,0.0,88,0.00,,FEW250,0.00,VWS V14.01,2013-07-12 06:20:00,
2013-07-12 01:21:00,57.8,54.6,30.03,NNW,336,0.0,0.0,89,0.00,,CLR,0.00,VWS V14.01,2013-07-12 06:21:00,
2013-07-12 01:25:00,57.6,54.4,30.03,NNW,336,0.0,0.0,89,0.00,,CLR,0.00,VWS V14.01,2013-07-12 06:25:00,
2013-07-12 01:26:00,57.7,54.2,30.03,NNW,336,0.0,0.0,88,0.00,,CLR,0.00,VWS V14.01,2013-07-12 06:26:00,
2013-07-12 01:30:00,58.1,54.3,30.03,NNW,333,0.0,0.0,87,0.00,,FEW250,0.00,VWS V14.01,2013-07-12 06:30:00,
2013-07-12 01:31:00,58.2,54.4,30.03,NNW,333,0.0,0.0,87,0.00,,CLR,0.00,VWS V14.01,2013-07-12 06:31:00,
2013-07-12 01:35:00,58.2,54.3,30.04,NNW,333,0.0,0.0,87,0.00,,FEW250,0.00,VWS V14.01,2013-07-12 06:35:00,
2013-07-12 01:36:00,58.1,54.3,30.04,NNW,333,0.0,0.0,87,0.00,,CLR,0.00,VWS V14.01,2013-07-12 06:36:00,
2013-07-12 01:40:00,57.9,54.4,30.04,NNW,333,0.0,0.0,88,0.00,,FEW250,0.00,VWS V14.01,2013-07-12 06:40:00,
2013-07-12 01:41:00,57.8,54.3,30.04,NNW,333,0.0,0.0,88,0.00,,CLR,0.00,VWS V14.01,2013-07-12 06:41:00,
2013-07-12 01:45:00,57.7,53.9,30.03,NNW,333,0.0,0.0,87,0.00,,CLR,0.00,VWS V14.01,2013-07-12 06:45:00,
2013-07-12 01:46:00,57.7,53.9,30.03,NNW,333,0.0,0.0,87,0.00,,CLR,0.00,VWS V14.01,2013-07-12 06:46:00,
2013-07-12 01:50:00,57.9,54.1,30.03,NNW,333,0.0,0.0,87,0.00,,CLR,0.00,VWS V14.01,2013-07-12 06:50:00,
2013-07-12 01:51:00,58.1,53.9,30.04,NNW,333,0.0,0.0,86,0.00,,CLR,0.00,VWS V14.01,2013-07-12 06:51:00,
2013-07-12 01:55:00,58.3,54.1,30.04,NNW,333,0.0,0.0,86,0.00,,CLR,0.00,VWS V14.01,2013-07-12 06:55:00,
2013-07-12 01:56:00,58.4,53.9,30.04,NNW,333,0.0,0.0,85,0.00,,CLR,0.00,VWS V14.01,2013-07-12 06:56:00,
2013-07-12 02:00:00,58.4,53.9,30.04,NNW,333,0.0,0.0,85,0.00,,FEW250,0.00,VWS V14.01,2013-07-12 07:00:00,
2013-07-12 02:01:00,58.3,53.8,30.04,NNW,333,0.0,0.0,85,0.00,,CLR,0.00,VWS V14.01,2013-07-12 07:01:00,
2013-07-12 02:05:00,58.2,53.7,30.03,NNW,333,0.0,0.0,85,0.00,,FEW250,0.00,VWS V14.01,2013-07-12 07:05:00,
2013-07-12 02:06:00,58.2,53.4,30.04,NNW,333,0.0,0.0,84,0.00,,CLR,0.00,VWS V14.01,2013-07-12 07:06:00,
2013-07-12 02:10:00,58.3,53.5,30.04,NNW,333,0.0,0.0,84,0.00,,FEW250,0.00,VWS V14.01,2013-07-12 07:10:00,
2013-07-12 02:12:00,58.5,53.7,30.04,NNW,333,0.0,0.0,84,0.00,,CLR,0.00,VWS V14.01,2013-07-12 07:12:00,
2013-07-12 02:15:00,58.6,53.8,30.04,NNW,333,0.0,0.0,84,0.00,,FEW250,0.00,VWS V14.01,2013-07-12 07:15:00,
2013-07-12 02:17:00,58.4,53.6,30.04,NNW,333,0.0,0.0,84,0.00,,CLR,0.00,VWS V14.01,2013-07-12 07:17:00,
2013-07-12 02:20:00,58.0,53.5,30.05,NNW,333,0.0,0.0,85,0.00,,FEW250,0.00,VWS V14.01,2013-07-12 07:20:00,
2013-07-12 02:22:00,57.7,53.2,30.05,NNW,333,0.0,0.0,85,0.00,,CLR,0.00,VWS V14.01,2013-07-12 07:22:00,
2013-07-12 02:25:00,57.4,53.2,30.05,NNW,333,0.0,0.0,86,0.00,,CLR,0.00,VWS V14.01,2013-07-12 07:25:00,
2013-07-12 02:27:00,57.3,53.2,30.05,NNW,333,0.0,0.0,86,0.00,,CLR,0.00,VWS V14.01,2013-07-12 07:27:00,
2013-07-12 02:30:00,57.3,53.5,30.05,NNW,333,0.0,0.0,87,0.00,,CLR,0.00,VWS V14.01,2013-07-12 07:30:00,
2013-07-12 02:32:00,57.2,53.4,30.05,NNW,333,0.0,0.0,87,0.00,,CLR,0.00,VWS V14.01,2013-07-12 07:32:00,
2013-07-12 02:35:00,57.1,53.3,30.05,NNW,333,0.0,0.0,87,0.00,,FEW250,0.00,VWS V14.01,2013-07-12 07:35:00,
2013-07-12 02:37:00,57.1,53.3,30.05,NNW,333,0.0,0.0,87,0.00,,CLR,0.00,VWS V14.01,2013-07-12 07:37:00,
2013-07-12 02:40:00,57.1,53.0,30.05,NNW,333,0.0,0.0,86,0.00,,FEW250,0.00,VWS V14.01,2013-07-12 07:40:00,
2013-07-12 02:42:00,57.2,53.1,30.05,NNW,333,0.0,0.0,86,0.00,,CLR,0.00,VWS V14.01,2013-07-12 07:42:00,
2013-07-12 02:45:00,57.3,53.2,30.05,NNW,333,0.0,0.0,86,0.00,,CLR,0.00,VWS V14.01,2013-07-12 07:45:00,
2013-07-12 02:47:00,57.5,53.3,30.05,NNW,333,0.0,0.0,86,0.00,,CLR,0.00,VWS V14.01,2013-07-12 07:47:00,
2013-07-12 02:50:00,57.4,53.2,30.05,NNW,333,0.0,0.0,86,0.00,,CLR,0.00,VWS V14.01,2013-07-12 07:50:00,
2013-07-12 02:52:00,57.2,53.1,30.05,NNW,333,0.0,0.0,86,0.00,,CLR,0.00,VWS V14.01,2013-07-12 07:52:00,
2013-07-12 02:55:00,57.1,53.0,30.05,NNW,333,0.0,0.0,86,0.00,,FEW250,0.00,VWS V14.01,2013-07-12 07:55:00,
2013-07-12 02:57:00,57.1,53.0,30.04,NNW,333,0.0,0.0,86,0.00,,CLR,0.00,VWS V14.01,2013-07-12 07:57:00,
2013-07-12 03:00:00,57.0,52.9,30.05,NNW,333,0.0,0.0,86,0.00,,FEW250,0.00,VWS V14.01,2013-07-12 08:00:00,
2013-07-12 03:02:00,57.1,53.0,30.04,NNW,333,0.0,0.0,86,0.00,,CLR,0.00,VWS V14.01,2013-07-12 08:02:00,
2013-07-12 03:05:00,57.1,53.0,30.05,NNW,333,0.0,0.0,86,0.00,,FEW250,0.00,VWS V14.01,2013-07-12 08:05:00,
2013-07-12 03:07:00,57.3,53.2,30.04,NNW,333,0.0,0.0,86,0.00,,CLR,0.00,VWS V14.01,2013-07-12 08:07:00,
2013-07-12 03:10:00,57.1,53.0,30.05,NNW,333,0.0,0.0,86,0.00,,FEW250,0.00,VWS V14.01,2013-07-12 08:10:00,
2013-07-12 03:12:00,57.0,52.9,30.05,NNW,333,0.0,0.0,86,0.00,,CLR,0.00,VWS V14.01,2013-07-12 08:12:00,
2013-07-12 03:15:00,56.9,52.8,30.05,NNW,333,0.0,0.0,86,0.00,,FEW250,0.00,VWS V14.01,2013-07-12 08:15:00,
2013-07-12 03:17:00,56.9,52.8,30.05,NNW,333,0.0,0.0,86,0.00,,CLR,0.00,VWS V14.01,2013-07-12 08:17:00,
2013-07-12 03:20:00,57.1,53.0,30.05,NNW,333,0.0,0.0,86,0.00,,FEW250,0.00,VWS V14.01,2013-07-12 08:20:00,
2013-07-12 03:22:00,57.2,53.1,30.05,NNW,333,0.0,0.0,86,0.00,,CLR,0.00,VWS V14.01,2013-07-12 08:22:00,
2013-07-12 03:25:00,57.1,53.0,30.04,NNW,333,0.0,0.0,86,0.00,,FEW250,0.00,VWS V14.01,2013-07-12 08:25:00,
2013-07-12 03:28:00,57.2,53.1,30.05,NNW,333,0.0,0.0,86,0.00,,CLR,0.00,VWS V14.01,2013-07-12 08:28:00,
2013-07-12 03:30:00,57.1,53.0,30.05,NNW,333,0.0,0.0,86,0.00,,FEW250,0.00,VWS V14.01,2013-07-12 08:30:00,
2013-07-12 03:33:00,56.9,52.8,30.05,NNW,333,0.0,0.0,86,0.00,,CLR,0.00,VWS V14.01,2013-07-12 08:33:00,
2013-07-12 03:35:00,56.9,52.8,30.05,NNW,333,0.0,0.0,86,0.00,,FEW250,0.00,VWS V14.01,2013-07-12 08:35:00,
2013-07-12 03:38:00,56.9,52.8,30.05,NNW,333,0.0,0.0,86,0.00,,CLR,0.00,VWS V14.01,2013-07-12 08:38:00,
2013-07-12 03:40:00,56.8,52.7,30.05,NNW,333,0.0,0.0,86,0.00,,FEW250,0.00,VWS V14.01,2013-07-12 08:40:00,
2013-07-12 03:43:00,56.7,52.6,30.05,NNW,333,0.0,0.0,86,0.00,,CLR,0.00,VWS V14.01,2013-07-12 08:43:00,
2013-07-12 03:45:00,56.6,52.5,30.05,NNW,333,0.0,0.0,86,0.00,,FEW250,0.00,VWS V14.01,2013-07-12 08:45:00,
2013-07-12 03:48:00,56.6,52.5,30.04,NNW,333,0.0,0.0,86,0.00,,CLR,0.00,VWS V14.01,2013-07-12 08:48:00,
2013-07-12 03:50:00,56.6,52.5,30.04,NNW,333,0.0,0.0,86,0.00,,FEW250,0.00,VWS V14.01,2013-07-12 08:50:00,
2013-07-12 03:53:00,56.7,52.6,30.04,NNW,333,0.0,0.0,86,0.00,,CLR,0.00,VWS V14.01,2013-07-12 08:53:00,
2013-07-12 03:55:00,56.6,52.5,30.04,NNW,333,0.0,0.0,86,0.00,,FEW250,0.00,VWS V14.01,2013-07-12 08:55:00,
2013-07-12 03:58:00,56.4,52.6,30.05,NNW,333,0.0,0.0,87,0.00,,CLR,0.00,VWS V14.01,2013-07-12 08:58:00,
2013-07-12 04:00:00,56.4,52.6,30.05,NNW,333,0.0,0.0,87,0.00,,FEW250,0.00,VWS V14.01,2013-07-12 09:00:00,
2013-07-12 04:03:00,56.2,52.4,30.04,NNW,333,0.0,0.0,87,0.00,,CLR,0.00,VWS V14.01,2013-07-12 09:03:00,
2013-07-12 04:05:00,56.2,52.4,30.04,NNW,333,0.0,0.0,87,0.00,,FEW250,0.00,VWS V14.01,2013-07-12 09:05:00,
2013-07-12 04:08:00,56.0,52.5,30.04,NNW,333,0.0,0.0,88,0.00,,CLR,0.00,VWS V14.01,2013-07-12 09:08:00,
2013-07-12 04:10:00,56.0,52.5,30.04,NNW,333,0.0,0.0,88,0.00,,FEW250,0.00,VWS V14.01,2013-07-12 09:10:00,
2013-07-12 04:13:00,55.8,52.6,30.05,NNW,333,0.0,0.0,89,0.00,,CLR,0.00,VWS V14.01,2013-07-12 09:13:00,
2013-07-12 04:15:00,55.8,52.6,30.05,NNW,333,0.0,0.0,89,0.00,,FEW250,0.00,VWS V14.01,2013-07-12 09:15:00,
2013-07-12 04:18:00,55.6,52.7,30.05,NNW,333,0.0,0.0,90,0.00,,CLR,0.00,VWS V14.01,2013-07-12 09:18:00,
2013-07-12 04:20:00,55.6,52.7,30.05,NNW,333,0.0,0.0,90,0.00,,FEW250,0.00,VWS V14.01,2013-07-12 09:20:00,
2013-07-12 04:23:00,55.5,52.6,30.05,NNW,333,0.0,0.0,90,0.00,,CLR,0.00,VWS V14.01,2013-07-12 09:23:00,
2013-07-12 04:25:00,55.5,52.9,30.05,NNW,333,0.0,0.0,91,0.00,,FEW250,0.00,VWS V14.01,2013-07-12 09:25:00,
2013-07-12 04:28:00,55.5,52.9,30.05,NNW,333,0.0,0.0,91,0.00,,CLR,0.00,VWS V14.01,2013-07-12 09:28:00,
2013-07-12 04:30:00,55.5,52.9,30.05,NNW,333,0.0,0.0,91,0.00,,FEW250,0.00,VWS V14.01,2013-07-12 09:30:00,
2013-07-12 04:33:00,55.5,53.2,30.05,NNW,333,0.0,0.0,92,0.00,,CLR,0.00,VWS V14.01,2013-07-12 09:33:00,
2013-07-12 04:35:00,55.4,53.1,30.05,NNW,333,0.0,0.0,92,0.00,,FEW250,0.00,VWS V14.01,2013-07-12 09:35:00,
2013-07-12 04:38:00,55.3,53.0,30.05,NNW,333,0.0,0.0,92,0.00,,CLR,0.00,VWS V14.01,2013-07-12 09:38:00,
2013-07-12 04:40:00,55.3,53.0,30.05,NNW,333,0.0,0.0,92,0.00,,FEW250,0.00,VWS V14.01,2013-07-12 09:40:00,
2013-07-12 04:44:00,55.2,52.9,30.06,NNW,333,0.0,0.0,92,0.00,,CLR,0.00,VWS V14.01,2013-07-12 09:44:00,
2013-07-12 04:45:00,55.1,52.8,30.06,NNW,333,0.0,0.0,92,0.00,,FEW250,0.00,VWS V14.01,2013-07-12 09:45:00,
2013-07-12 04:49:00,55.0,52.7,30.06,NNW,333,0.0,0.0,92,0.00,,CLR,0.00,VWS V14.01,2013-07-12 09:49:00,
2013-07-12 04:50:00,54.9,52.6,30.05,NNW,333,0.0,0.0,92,0.00,,FEW250,0.00,VWS V14.01,2013-07-12 09:50:00,
2013-07-12 04:54:00,54.8,52.5,30.05,NNW,333,0.0,0.0,92,0.00,,CLR,0.00,VWS V14.01,2013-07-12 09:54:00,
2013-07-12 04:55:00,54.7,52.4,30.05,NNW,333,0.0,0.0,92,0.00,,FEW250,0.00,VWS V14.01,2013-07-12 09:55:00,
2013-07-12 04:59:00,54.6,52.3,30.06,NNW,333,0.0,0.0,92,0.00,,CLR,0.00,VWS V14.01,2013-07-12 09:59:00,
2013-07-12 05:00:00,54.6,52.3,30.06,NNW,333,0.0,0.0,92,0.00,,FEW250,0.00,VWS V14.01,2013-07-12 10:00:00,
2013-07-12 05:04:00,54.6,52.3,30.05,NNW,333,0.0,0.0,92,0.00,,CLR,0.00,VWS V14.01,2013-07-12 10:04:00,
2013-07-12 05:05:00,54.6,52.3,30.05,NNW,333,0.0,0.0,92,0.00,,FEW250,0.00,VWS V14.01,2013-07-12 10:05:00,
2013-07-12 05:09:00,54.5,52.2,30.05,NNW,333,0.0,0.0,92,0.00,,CLR,0.00,VWS V14.01,2013-07-12 10:09:00,
2013-07-12 05:10:00,54.5,52.2,30.05,NNW,333,0.0,0.0,92,0.00,,FEW250,0.00,VWS V14.01,2013-07-12 10:10:00,
2013-07-12 05:14:00,54.6,52.3,30.05,NNW,333,0.0,0.0,92,0.00,,CLR,0.00,VWS V14.01,2013-07-12 10:14:00,
2013-07-12 05:15:00,54.6,52.3,30.05,NNW,333,0.0,0.0,92,0.00,,FEW250,0.00,VWS V14.01,2013-07-12 10:15:00,
2013-07-12 05:19:00,54.7,52.4,30.06,NNW,333,0.0,0.0,92,0.00,,CLR,0.00,VWS V14.01,2013-07-12 10:19:00,
2013-07-12 05:20:00,54.7,52.4,30.06,NNW,333,0.0,0.0,92,0.00,,FEW250,0.00,VWS V14.01,2013-07-12 10:20:00,
2013-07-12 05:24:00,54.7,52.4,30.06,NNW,333,0.0,0.0,92,0.00,,CLR,0.00,VWS V14.01,2013-07-12 10:24:00,
2013-07-12 05:25:00,54.7,52.4,30.06,NNW,333,0.0,0.0,92,0.00,,FEW250,0.00,VWS V14.01,2013-07-12 10:25:00,
2013-07-12 05:29:00,54.8,52.5,30.06,NNW,333,0.0,0.0,92,0.00,,CLR,0.00,VWS V14.01,2013-07-12 10:29:00,
2013-07-12 05:30:00,54.8,52.5,30.06,NNW,333,0.0,0.0,92,0.00,,FEW250,0.00,VWS V14.01,2013-07-12 10:30:00,
2013-07-12 05:34:00,54.8,52.2,30.06,NNW,333,0.0,0.0,91,0.00,,CLR,0.00,VWS V14.01,2013-07-12 10:34:00,
2013-07-12 05:35:00,54.8,52.2,30.06,NNW,333,0.0,0.0,91,0.00,,FEW250,0.00,VWS V14.01,2013-07-12 10:35:00,
2013-07-12 05:39:00,54.9,52.3,30.07,NNW,333,0.0,0.0,91,0.00,,CLR,0.00,VWS V14.01,2013-07-12 10:39:00,
2013-07-12 05:40:00,54.9,52.3,30.07,NNW,333,0.0,0.0,91,0.00,,FEW250,0.00,VWS V14.01,2013-07-12 10:40:00,
2013-07-12 05:44:00,55.0,52.4,30.07,NNW,333,0.0,0.0,91,0.00,,CLR,0.00,VWS V14.01,2013-07-12 10:44:00,
2013-07-12 05:45:00,55.0,52.4,30.07,NNW,333,0.0,0.0,91,0.00,,FEW250,0.00,VWS V14.01,2013-07-12 10:45:00,
2013-07-12 05:49:00,55.1,52.5,30.07,NNW,333,0.0,0.0,91,0.00,,CLR,0.00,VWS V14.01,2013-07-12 10:49:00,
2013-07-12 05:50:00,55.1,52.5,30.07,NNW,333,0.0,0.0,91,0.00,,FEW250,0.00,VWS V14.01,2013-07-12 10:50:00,
2013-07-12 05:55:00,55.1,52.2,30.08,NNW,333,0.0,0.0,90,0.00,,CLR,0.00,VWS V14.01,2013-07-12 10:55:00,
2013-07-12 06:00:00,55.0,52.1,30.07,NNW,333,0.0,0.0,90,0.00,,CLR,0.00,VWS V14.01,2013-07-12 11:00:00,
2013-07-12 06:05:00,55.1,52.2,30.08,NNW,333,0.0,0.0,90,0.00,,FEW250,0.00,VWS V14.01,2013-07-12 11:05:00,
2013-07-12 06:10:00,55.4,52.5,30.08,NNW,333,0.0,0.0,90,0.00,,FEW250,0.00,VWS V14.01,2013-07-12 11:10:00,
2013-07-12 06:15:00,56.0,52.8,30.08,NNW,333,0.0,0.0,89,0.00,,FEW250,0.00,VWS V14.01,2013-07-12 11:15:00,
2013-07-12 06:20:00,56.3,52.8,30.07,NNW,333,0.0,0.0,88,0.00,,FEW250,0.00,VWS V14.01,2013-07-12 11:20:00,
2013-07-12 06:25:00,56.8,52.7,30.07,NNW,333,0.0,0.0,86,0.00,,FEW250,0.00,VWS V14.01,2013-07-12 11:25:00,
2013-07-12 06:30:00,57.5,52.7,30.07,NNW,333,0.0,0.0,84,0.00,,FEW250,0.00,VWS V14.01,2013-07-12 11:30:00,
2013-07-12 06:35:00,58.4,52.9,30.07,NNW,333,0.0,0.0,82,0.00,,FEW250,0.00,VWS V14.01,2013-07-12 11:35:00,
2013-07-12 06:40:00,59.8,53.3,30.07,NNW,333,0.0,0.0,79,0.00,,FEW250,0.00,VWS V14.01,2013-07-12 11:40:00,
2013-07-12 06:45:00,60.3,53.8,30.08,NNW,333,0.0,0.0,79,0.00,,FEW250,0.00,VWS V14.01,2013-07-12 11:45:00,
2013-07-12 06:50:00,60.2,54.0,30.08,NNW,333,0.0,0.0,80,0.00,,FEW250,0.00,VWS V14.01,2013-07-12 11:50:00,
2013-07-12 06:55:00,59.7,53.5,30.09,NNW,333,0.0,0.0,80,0.00,,FEW250,0.00,VWS V14.01,2013-07-12 11:55:00,
2013-07-12 07:00:00,59.8,54.0,30.08,NNW,333,0.0,0.0,81,0.00,,FEW250,0.00,VWS V14.01,2013-07-12 12:00:00,
2013-07-12 07:05:00,60.3,54.1,30.08,NNW,333,0.0,0.0,80,0.00,,FEW250,0.00,VWS V14.01,2013-07-12 12:05:00,
2013-07-12 07:10:00,60.9,54.3,30.08,NNW,333,0.0,0.0,79,0.00,,FEW250,0.00,VWS V14.01,2013-07-12 12:10:00,
2013-07-12 07:11:00,61.2,54.3,30.09,NNW,342,0.0,1.0,78,0.00,,FEW250,0.00,VWS V14.01,2013-07-12 12:11:00,
2013-07-12 07:15:00,62.2,54.9,30.08,NNW,342,0.0,0.0,77,0.00,,FEW250,0.00,VWS V14.01,2013-07-12 12:15:00,
2013-07-12 07:16:00,62.6,54.9,30.08,NNW,342,0.0,0.0,76,0.00,,FEW250,0.00,VWS V14.01,2013-07-12 12:16:00,
2013-07-12 07:20:00,63.8,56.1,30.08,NNW,342,0.0,0.0,76,0.00,,FEW250,0.00,VWS V14.01,2013-07-12 12:20:00,
2013-07-12 07:21:00,64.2,56.1,30.08,NNW,342,0.0,0.0,75,0.00,,FEW250,0.00,VWS V14.01,2013-07-12 12:21:00,
2013-07-12 07:25:00,65.5,57.0,30.09,NNW,342,0.0,0.0,74,0.00,,FEW250,0.00,VWS V14.01,2013-07-12 12:25:00,
2013-07-12 07:26:00,65.9,57.4,30.08,NNW,342,0.0,0.0,74,0.00,,FEW250,0.00,VWS V14.01,2013-07-12 12:26:00,
2013-07-12 07:30:00,66.8,57.5,30.09,NNW,342,0.0,0.0,72,0.00,,FEW250,0.00,VWS V14.01,2013-07-12 12:30:00,
2013-07-12 07:31:00,67.0,57.7,30.09,NNW,340,0.0,0.0,72,0.00,,FEW250,0.00,VWS V14.01,2013-07-12 12:31:00,
2013-07-12 07:35:00,66.7,57.0,30.09,NNW,340,0.0,0.0,71,0.00,,FEW250,0.00,VWS V14.01,2013-07-12 12:35:00,
2013-07-12 07:36:00,66.6,57.3,30.09,NNW,340,0.0,0.0,72,0.00,,FEW250,0.00,VWS V14.01,2013-07-12 12:36:00,
2013-07-12 07:40:00,66.7,58.2,30.09,NNW,340,0.0,0.0,74,0.00,,FEW250,0.00,VWS V14.01,2013-07-12 12:40:00,
2013-07-12 07:41:00,67.1,58.9,30.09,NNW,340,0.0,0.0,75,0.00,,FEW250,0.00,VWS V14.01,2013-07-12 12:41:00,
2013-07-12 07:45:00,67.9,59.7,30.09,North,5,0.0,1.0,75,0.00,,FEW250,0.00,VWS V14.01,2013-07-12 12:45:00,
2013-07-12 07:46:00,68.1,59.5,30.09,NNE,18,0.0,2.0,74,0.00,,FEW250,0.00,VWS V14.01,2013-07-12 12:46:00,
2013-07-12 07:50:00,68.1,59.5,30.09,North,360,0.0,0.0,74,0.00,,FEW250,0.00,VWS V14.01,2013-07-12 12:50:00,
2013-07-12 07:51:00,68.1,59.9,30.09,NNE,22,0.0,0.0,75,0.00,,FEW250,0.00,VWS V14.01,2013-07-12 12:51:00,
2013-07-12 07:55:00,68.0,59.8,30.09,NNE,22,0.0,0.0,75,0.00,,FEW250,0.00,VWS V14.01,2013-07-12 12:55:00,
2013-07-12 07:56:00,68.1,60.3,30.09,NNE,22,0.0,0.0,76,0.00,,FEW250,0.00,VWS V14.01,2013-07-12 12:56:00,
2013-07-12 08:00:00,68.4,60.5,30.09,NNE,22,0.0,0.0,76,0.00,,FEW250,0.00,VWS V14.01,2013-07-12 13:00:00,
2013-07-12 08:01:00,68.6,60.4,30.09,NNE,32,0.0,0.0,75,0.00,,FEW250,0.00,VWS V14.01,2013-07-12 13:01:00,
2013-07-12 08:05:00,68.7,60.5,30.09,NNE,32,0.0,0.0,75,0.00,,FEW250,0.00,VWS V14.01,2013-07-12 13:05:00,
2013-07-12 08:06:00,68.8,60.6,30.09,NNE,32,0.0,0.0,75,0.00,,FEW250,0.00,VWS V14.01,2013-07-12 13:06:00,
2013-07-12 08:10:00,68.8,60.6,30.09,NNE,33,0.0,0.0,75,0.00,,FEW250,0.00,VWS V14.01,2013-07-12 13:10:00,
2013-07-12 08:11:00,68.8,60.6,30.09,NNE,33,0.0,1.0,75,0.00,,FEW250,0.00,VWS V14.01,2013-07-12 13:11:00,
2013-07-12 08:15:00,68.6,60.4,30.09,NE,37,0.0,1.0,75,0.00,,FEW250,0.00,VWS V14.01,2013-07-12 13:15:00,
2013-07-12 08:17:00,68.4,60.2,30.09,NE,37,0.0,0.0,75,0.00,,FEW250,0.00,VWS V14.01,2013-07-12 13:17:00,
2013-07-12 08:20:00,68.2,60.0,30.09,NE,45,0.0,2.0,75,0.00,,FEW250,0.00,VWS V14.01,2013-07-12 13:20:00,
2013-07-12 08:22:00,68.0,59.8,30.09,NE,44,0.0,2.0,75,0.00,,FEW250,0.00,VWS V14.01,2013-07-12 13:22:00,
2013-07-12 08:25:00,67.9,59.7,30.09,NE,45,0.0,1.0,75,0.00,,FEW250,0.00,VWS V14.01,2013-07-12 13:25:00,
2013-07-12 08:27:00,68.0,60.2,30.09,NE,35,0.0,0.0,76,0.00,,FEW250,0.00,VWS V14.01,2013-07-12 13:27:00,
2013-07-12 08:30:00,68.1,60.3,30.09,NE,46,0.0,0.0,76,0.00,,FEW250,0.00,VWS V14.01,2013-07-12 13:30:00,
2013-07-12 08:32:00,68.3,60.5,30.09,NE,46,0.0,0.0,76,0.00,,FEW250,0.00,VWS V14.01,2013-07-12 13:32:00,
2013-07-12 08:35:00,68.5,60.3,30.10,NE,46,0.0,0.0,75,0.00,,FEW250,0.00,VWS V14.01,2013-07-12 13:35:00,
2013-07-12 08:37:00,68.6,60.4,30.09,NE,36,0.0,1.0,75,0.00,,FEW250,0.00,VWS V14.01,2013-07-12 13:37:00,
2013-07-12 08:40:00,68.8,60.6,30.10,ENE,72,0.0,1.0,75,0.00,,FEW250,0.00,VWS V14.01,2013-07-12 13:40:00,
2013-07-12 08:42:00,68.9,60.3,30.09,NE,41,0.0,0.0,74,0.00,,FEW250,0.00,VWS V14.01,2013-07-12 13:42:00,
2013-07-12 08:45:00,69.0,60.4,30.09,NE,47,0.0,1.0,74,0.00,,FEW250,0.00,VWS V14.01,2013-07-12 13:45:00,
2013-07-12 08:47:00,68.9,60.3,30.09,NE,51,0.0,1.0,74,0.00,,FEW250,0.00,VWS V14.01,2013-07-12 13:47:00,
2013-07-12 08:50:00,68.9,60.3,30.09,ENE,61,0.0,0.0,74,0.00,,FEW250,0.00,VWS V14.01,2013-07-12 13:50:00,
2013-07-12 08:52:00,68.6,60.0,30.09,NE,49,0.0,1.0,74,0.00,,FEW250,0.00,VWS V14.01,2013-07-12 13:52:00,
2013-07-12 08:55:00,68.5,60.3,30.09,ENE,67,0.0,0.0,75,0.00,,FEW250,0.00,VWS V14.01,2013-07-12 13:55:00,
2013-07-12 08:57:00,68.4,60.5,30.09,ENE,74,0.0,3.0,76,0.00,,FEW250,0.00,VWS V14.01,2013-07-12 13:57:00,
2013-07-12 09:00:00,68.2,60.3,30.09,ENE,72,0.0,5.0,76,0.00,,FEW250,0.00,VWS V14.01,2013-07-12 14:00:00,
2013-07-12 09:02:00,68.1,60.3,30.09,ENE,65,0.0,5.0,76,0.00,,FEW250,0.00,VWS V14.01,2013-07-12 14:02:00,
2013-07-12 09:05:00,68.1,60.6,30.09,NE,52,0.0,5.0,77,0.00,,FEW250,0.00,VWS V14.01,2013-07-12 14:05:00,
2013-07-12 09:07:00,68.0,60.5,30.10,ENE,69,2.0,7.0,77,0.00,,FEW250,0.00,VWS V14.01,2013-07-12 14:07:00,
2013-07-12 09:10:00,67.9,60.4,30.10,NE,53,0.0,5.0,77,0.00,,FEW250,0.00,VWS V14.01,2013-07-12 14:10:00,
2013-07-12 09:12:00,67.9,60.8,30.09,ENE,78,4.0,5.0,78,0.00,,FEW250,0.00,VWS V14.01,2013-07-12 14:12:00,
2013-07-12 09:15:00,67.9,60.8,30.09,East,82,5.0,7.0,78,0.00,,CLR,0.00,VWS V14.01,2013-07-12 14:15:00,
2013-07-12 09:18:00,67.7,60.6,30.09,East,90,5.0,7.0,78,0.00,,FEW250,0.00,VWS V14.01,2013-07-12 14:18:00,
2013-07-12 09:20:00,67.6,60.9,30.09,ENE,77,0.0,6.0,79,0.00,,CLR,0.00,VWS V14.01,2013-07-12 14:20:00,
2013-07-12 09:23:00,67.8,61.4,30.09,ENE,60,3.0,3.0,80,0.00,,FEW250,0.00,VWS V14.01,2013-07-12 14:23:00,
2013-07-12 09:25:00,67.9,61.5,30.10,East,84,1.0,3.0,80,0.00,,FEW250,0.00,VWS V14.01,2013-07-12 14:25:00,
2013-07-12 09:28:00,68.3,61.9,30.10,ENE,61,0.0,1.0,80,0.00,,FEW250,0.00,VWS V14.01,2013-07-12 14:28:00,
2013-07-12 09:30:00,68.4,61.6,30.10,ENE,76,0.0,1.0,79,0.00,,FEW250,0.00,VWS V14.01,2013-07-12 14:30:00,
2013-07-12 09:33:00,68.4,61.6,30.09,ENE,77,0.0,5.0,79,0.00,,FEW250,0.00,VWS V14.01,2013-07-12 14:33:00,
2013-07-12 09:35:00,68.4,61.6,30.09,East,90,0.0,5.0,79,0.00,,FEW250,0.00,VWS V14.01,2013-07-12 14:35:00,
2013-07-12 09:38:00,68.5,61.7,30.09,ENE,74,0.0,0.0,79,0.00,,FEW250,0.00,VWS V14.01,2013-07-12 14:38:00,
2013-07-12 09:40:00,68.5,61.7,30.09,ENE,77,0.0,1.0,79,0.00,,FEW250,0.00,VWS V14.01,2013-07-12 14:40:00,
2013-07-12 09:43:00,68.6,61.8,30.09,East,84,0.0,1.0,79,0.00,,FEW250,0.00,VWS V14.01,2013-07-12 14:43:00,
2013-07-12 09:45:00,68.6,62.2,30.09,ENE,69,3.0,3.0,80,0.00,,FEW250,0.00,VWS V14.01,2013-07-12 14:45:00,
2013-07-12 09:48:00,68.5,61.7,30.09,ENE,69,4.0,4.0,79,0.00,,FEW250,0.00,VWS V14.01,2013-07-12 14:48:00,
2013-07-12 09:50:00,68.4,61.6,30.09,ENE,71,4.0,4.0,79,0.00,,FEW250,0.00,VWS V14.01,2013-07-12 14:50:00,
2013-07-12 09:53:00,68.4,62.0,30.09,NE,49,0.0,4.0,80,0.00,,FEW250,0.00,VWS V14.01,2013-07-12 14:53:00,
2013-07-12 09:55:00,68.3,61.9,30.09,ENE,67,2.0,5.0,80,0.00,,FEW250,0.00,VWS V14.01,2013-07-12 14:55:00,
2013-07-12 09:58:00,68.1,61.7,30.09,East,86,5.0,7.0,80,0.00,,FEW250,0.00,VWS V14.01,2013-07-12 14:58:00,
2013-07-12 10:00:00,68.0,61.6,30.09,ENE,73,4.0,7.0,80,0.00,,FEW250,0.00,VWS V14.01,2013-07-12 15:00:00,
2013-07-12 10:03:00,67.7,62.0,30.09,East,88,6.0,7.0,82,0.00,,FEW250,0.00,VWS V14.01,2013-07-12 15:03:00,
2013-07-12 10:05:00,67.8,62.1,30.09,East,81,0.0,7.0,82,0.00,,FEW250,0.00,VWS V14.01,2013-07-12 15:05:00,
2013-07-12 10:08:00,67.9,62.2,30.09,ENE,77,5.0,6.0,82,0.00,,FEW250,0.00,VWS V14.01,2013-07-12 15:08:00,
2013-07-12 10:10:00,67.8,62.1,30.09,East,87,3.0,7.0,82,0.00,,FEW250,0.00,VWS V14.01,2013-07-12 15:10:00,
2013-07-12 10:13:00,67.8,62.5,30.09,ENE,72,4.0,6.0,83,0.00,,FEW250,0.00,VWS V14.01,2013-07-12 15:13:00,
2013-07-12 10:15:00,67.9,62.5,30.09,East,83,5.0,7.0,83,0.00,,FEW250,0.00,VWS V14.01,2013-07-12 15:15:00,
2013-07-12 10:18:00,67.7,62.4,30.09,East,83,6.0,6.0,83,0.00,,FEW250,0.00,VWS V14.01,2013-07-12 15:18:00,
2013-07-12 10:20:00,67.7,62.4,30.09,East,80,0.0,7.0,83,0.00,,FEW250,0.00,VWS V14.01,2013-07-12 15:20:00,
2013-07-12 10:23:00,67.9,62.5,30.09,East,86,3.0,6.0,83,0.00,,FEW250,0.00,VWS V14.01,2013-07-12 15:23:00,
2013-07-12 10:25:00,67.8,62.5,30.09,East,96,3.0,6.0,83,0.00,,FEW250,0.00,VWS V14.01,2013-07-12 15:25:00,
2013-07-12 10:28:00,67.9,62.5,30.09,ENE,69,3.0,7.0,83,0.00,,FEW250,0.00,VWS V14.01,2013-07-12 15:28:00,
2013-07-12 10:30:00,67.9,62.5,30.09,North,360,0.0,7.0,83,0.00,,FEW250,0.00,VWS V14.01,2013-07-12 15:30:00,
2013-07-12 10:34:00,67.8,62.5,30.09,East,85,3.0,6.0,83,0.00,,FEW250,0.00,VWS V14.01,2013-07-12 15:34:00,
2013-07-12 10:35:00,67.9,62.9,30.09,East,83,3.0,6.0,84,0.00,,FEW250,0.00,VWS V14.01,2013-07-12 15:35:00,
2013-07-12 10:39:00,68.2,63.2,30.08,NE,55,0.0,7.0,84,0.00,,FEW250,0.00,VWS V14.01,2013-07-12 15:39:00,
2013-07-12 10:40:00,68.2,63.2,30.08,ENE,66,4.0,7.0,84,0.00,,FEW250,0.00,VWS V14.01,2013-07-12 15:40:00,
2013-07-12 10:44:00,68.1,62.8,30.09,ENE,74,4.0,7.0,83,0.00,,FEW250,0.00,VWS V14.01,2013-07-12 15:44:00,
2013-07-12 10:45:00,68.1,62.8,30.09,East,80,3.0,7.0,83,0.00,,FEW250,0.00,VWS V14.01,2013-07-12 15:45:00,
2013-07-12 10:49:00,68.2,63.5,30.09,ENE,57,5.0,8.0,85,0.00,,FEW250,0.00,VWS V14.01,2013-07-12 15:49:00,
2013-07-12 10:50:00,68.2,63.2,30.09,East,95,6.0,8.0,84,0.00,,FEW250,0.00,VWS V14.01,2013-07-12 15:50:00,
2013-07-12 10:54:00,68.5,63.5,30.09,East,86,3.0,8.0,84,0.00,,FEW250,0.00,VWS V14.01,2013-07-12 15:54:00,
2013-07-12 10:55:00,68.6,63.6,30.09,East,84,8.0,8.0,84,0.00,,FEW250,0.00,VWS V14.01,2013-07-12 15:55:00,
2013-07-12 10:59:00,68.6,63.2,30.09,East,81,6.0,7.0,83,0.00,,FEW250,0.00,VWS V14.01,2013-07-12 15:59:00,
2013-07-12 11:00:00,68.6,63.2,30.09,East,80,6.0,7.0,83,0.00,,FEW250,0.00,VWS V14.01,2013-07-12 16:00:00,
2013-07-12 11:04:00,68.5,63.8,30.09,NE,54,3.0,8.0,85,0.00,,FEW250,0.00,VWS V14.01,2013-07-12 16:04:00,
2013-07-12 11:05:00,68.5,63.8,30.09,East,92,3.0,8.0,85,0.00,,FEW250,0.00,VWS V14.01,2013-07-12 16:05:00,
2013-07-12 11:09:00,68.8,63.4,30.09,ENE,63,5.0,8.0,83,0.00,,FEW250,0.00,VWS V14.01,2013-07-12 16:09:00,
2013-07-12 11:10:00,68.8,63.4,30.09,ENE,69,2.0,8.0,83,0.00,,FEW250,0.00,VWS V14.01,2013-07-12 16:10:00,
2013-07-12 11:14:00,68.7,63.0,30.09,East,89,3.0,8.0,82,0.00,,FEW250,0.00,VWS V14.01,2013-07-12 16:14:00,
2013-07-12 11:15:00,68.8,63.1,30.09,ENE,73,4.0,8.0,82,0.00,,FEW250,0.00,VWS V14.01,2013-07-12 16:15:00,
2013-07-12 11:19:00,68.6,63.2,30.09,East,96,7.0,8.0,83,0.00,,FEW250,0.00,VWS V14.01,2013-07-12 16:19:00,
2013-07-12 11:20:00,68.6,63.2,30.09,East,96,5.0,8.0,83,0.00,,FEW250,0.00,VWS V14.01,2013-07-12 16:20:00,
2013-07-12 11:24:00,69.0,63.6,30.09,East,82,5.0,7.0,83,0.00,,FEW250,0.00,VWS V14.01,2013-07-12 16:24:00,
2013-07-12 11:25:00,69.0,63.6,30.09,East,82,5.0,7.0,83,0.00,,FEW250,0.00,VWS V14.01,2013-07-12 16:25:00,
2013-07-12 11:29:00,69.3,63.9,30.09,ENE,71,4.0,7.0,83,0.00,,FEW250,0.00,VWS V14.01,2013-07-12 16:29:00,
2013-07-12 11:30:00,69.3,63.9,30.09,ENE,71,4.0,7.0,83,0.00,,FEW250,0.00,VWS V14.01,2013-07-12 16:30:00,
2013-07-12 11:34:00,68.8,63.1,30.09,ENE,70,7.0,8.0,82,0.00,,FEW250,0.00,VWS V14.01,2013-07-12 16:34:00,
2013-07-12 11:35:00,68.8,63.1,30.09,ENE,70,7.0,8.0,82,0.00,,FEW250,0.00,VWS V14.01,2013-07-12 16:35:00,
2013-07-12 11:40:00,69.1,64.1,30.09,ENE,58,4.0,7.0,84,0.00,,FEW250,0.00,VWS V14.01,2013-07-12 16:40:00,
2013-07-12 11:45:00,69.0,63.3,30.09,ENE,72,4.0,8.0,82,0.00,,FEW250,0.00,VWS V14.01,2013-07-12 16:45:00,
2013-07-12 11:50:00,68.8,63.4,30.09,ENE,57,8.0,9.0,83,0.00,,FEW250,0.00,VWS V14.01,2013-07-12 16:50:00,
2013-07-12 11:55:00,69.4,64.0,30.08,East,100,6.0,8.0,83,0.00,,FEW250,0.00,VWS V14.01,2013-07-12 16:55:00,
2013-07-12 12:00:00,69.6,63.9,30.08,East,89,6.0,8.0,82,0.00,,FEW250,0.00,VWS V14.01,2013-07-12 17:00:00,
2013-07-12 12:01:00,69.6,63.9,30.08,East,86,6.0,8.0,82,0.00,,FEW250,0.00,VWS V14.01,2013-07-12 17:01:00,
2013-07-12 12:05:00,70.0,63.9,30.08,East,88,5.0,7.0,81,0.00,,FEW250,0.00,VWS V14.01,2013-07-12 17:05:00,
2013-07-12 12:06:00,70.1,63.7,30.08,East,82,8.0,8.0,80,0.00,,FEW250,0.00,VWS V14.01,2013-07-12 17:06:00,
2013-07-12 12:10:00,70.2,63.8,30.09,NE,42,4.0,8.0,80,0.00,,FEW250,0.00,VWS V14.01,2013-07-12 17:10:00,
2013-07-12 12:13:00,70.5,64.0,30.09,East,100,5.0,8.0,80,0.00,,FEW250,0.00,VWS V14.01,2013-07-12 17:13:00,
2013-07-12 12:15:00,70.4,63.9,30.08,East,89,5.0,8.0,80,0.00,,FEW250,0.00,VWS V14.01,2013-07-12 17:15:00,
2013-07-12 12:20:00,69.9,63.8,30.09,East,91,5.0,8.0,81,0.00,,FEW250,0.00,VWS V14.01,2013-07-12 17:20:00,
2013-07-12 12:25:00,70.2,64.4,30.09,East,86,5.0,8.0,82,0.00,,FEW250,0.00,VWS V14.01,2013-07-12 17:25:00,
2013-07-12 12:30:00,70.5,64.8,30.08,East,91,7.0,10.0,82,0.00,,FEW250,0.00,VWS V14.01,2013-07-12 17:30:00,
2013-07-12 12:35:00,70.6,64.8,30.08,East,85,6.0,9.0,82,0.00,,FEW250,0.00,VWS V14.01,2013-07-12 17:35:00,
2013-07-12 12:37:00,70.8,64.7,30.08,ENE,65,7.0,9.0,81,0.00,,FEW250,0.00,VWS V14.01,2013-07-12 17:37:00,
2013-07-12 12:40:00,70.8,64.7,30.08,ENE,76,8.0,8.0,81,0.00,,FEW250,0.00,VWS V14.01,2013-07-12 17:40:00,
2013-07-12 12:42:00,70.6,64.5,30.08,ESE,106,5.0,9.0,81,0.00,,FEW250,0.00,VWS V14.01,2013-07-12 17:42:00,
2013-07-12 12:45:00,70.6,64.8,30.08,ENE,76,7.0,9.0,82,0.00,,FEW250,0.00,VWS V14.01,2013-07-12 17:45:00,
2013-07-12 12:47:00,70.7,64.9,30.08,East,98,6.0,7.0,82,0.00,,FEW250,0.00,VWS V14.01,2013-07-12 17:47:00,
2013-07-12 12:50:00,70.9,65.1,30.08,ENE,62,0.0,7.0,82,0.00,,FEW250,0.00,VWS V14.01,2013-07-12 17:50:00,
2013-07-12 12:53:00,71.0,64.5,30.07,East,94,5.0,8.0,80,0.00,,FEW250,0.00,VWS V14.01,2013-07-12 17:53:00,
2013-07-12 12:55:00,70.8,64.3,30.07,East,85,7.0,8.0,80,0.00,,FEW250,0.00,VWS V14.01,2013-07-12 17:55:00,
2013-07-12 12:59:00,70.7,64.6,30.07,East,92,0.0,7.0,81,0.00,,FEW250,0.00,VWS V14.01,2013-07-12 17:59:00,
2013-07-12 13:00:00,70.7,64.6,30.07,East,96,1.0,7.0,81,0.00,,FEW250,0.00,VWS V14.01,2013-07-12 18:00:00,
2013-07-12 13:04:00,71.0,64.9,30.07,East,98,3.0,8.0,81,0.00,,FEW250,0.00,VWS V14.01,2013-07-12 18:04:00,
2013-07-12 13:05:00,71.0,64.9,30.07,East,98,7.0,8.0,81,0.00,,CLR,0.00,VWS V14.01,2013-07-12 18:05:00,
2013-07-12 13:09:00,70.9,64.8,30.07,ENE,76,0.0,8.0,81,0.00,,FEW250,0.00,VWS V14.01,2013-07-12 18:09:00,
2013-07-12 13:10:00,70.9,65.1,30.07,East,96,3.0,8.0,82,0.00,,FEW250,0.00,VWS V14.01,2013-07-12 18:10:00,
2013-07-12 13:14:00,71.1,64.6,30.07,ESE,106,0.0,7.0,80,0.00,,FEW250,0.00,VWS V14.01,2013-07-12 18:14:00,
2013-07-12 13:15:00,71.0,64.5,30.07,East,101,2.0,7.0,80,0.00,,FEW250,0.00,VWS V14.01,2013-07-12 18:15:00,
2013-07-12 13:19:00,71.1,65.3,30.07,East,96,6.0,8.0,82,0.00,,FEW250,0.00,VWS V14.01,2013-07-12 18:19:00,
2013-07-12 13:20:00,71.1,65.3,30.07,East,95,5.0,8.0,82,0.00,,FEW250,0.00,VWS V14.01,2013-07-12 18:20:00,
2013-07-12 13:25:00,71.0,64.5,30.07,East,94,3.0,7.0,80,0.00,,FEW250,0.00,VWS V14.01,2013-07-12 18:25:00,
2013-07-12 13:30:00,70.8,65.0,30.07,East,88,0.0,7.0,82,0.00,,FEW250,0.00,VWS V14.01,2013-07-12 18:30:00,
2013-07-12 13:35:00,71.1,65.0,30.07,ESE,115,0.0,7.0,81,0.00,,FEW250,0.00,VWS V14.01,2013-07-12 18:35:00,
2013-07-12 13:37:00,71.3,65.2,30.07,East,99,0.0,7.0,81,0.00,,FEW250,0.00,VWS V14.01,2013-07-12 18:37:00,
2013-07-12 13:40:00,71.7,65.2,30.07,ESE,121,5.0,5.0,80,0.00,,FEW250,0.00,VWS V14.01,2013-07-12 18:40:00,
2013-07-12 13:42:00,72.1,65.6,30.07,East,92,6.0,8.0,80,0.00,,FEW250,0.00,VWS V14.01,2013-07-12 18:42:00,
2013-07-12 13:45:00,72.3,65.8,30.07,ESE,113,0.0,8.0,80,0.00,,FEW250,0.00,VWS V14.01,2013-07-12 18:45:00,
2013-07-12 13:47:00,72.4,65.2,30.07,ESE,112,0.0,7.0,78,0.00,,FEW250,0.00,VWS V14.01,2013-07-12 18:47:00,
2013-07-12 13:50:00,72.3,65.1,30.07,East,90,3.0,6.0,78,0.00,,FEW250,0.00,VWS V14.01,2013-07-12 18:50:00,
2013-07-12 13:52:00,72.1,65.2,30.07,East,79,5.0,6.0,79,0.00,,FEW250,0.00,VWS V14.01,2013-07-12 18:52:00,
2013-07-12 13:55:00,72.2,65.7,30.07,ENE,63,0.0,6.0,80,0.00,,FEW250,0.00,VWS V14.01,2013-07-12 18:55:00,
2013-07-12 13:58:00,72.2,65.3,30.07,ESE,107,0.0,7.0,79,0.00,,FEW250,0.00,VWS V14.01,2013-07-12 18:58:00,
2013-07-12 14:00:00,72.2,65.3,30.07,ESE,104,0.0,6.0,79,0.00,,FEW250,0.00,VWS V14.01,2013-07-12 19:00:00,
2013-07-12 14:04:00,72.3,64.7,30.06,East,90,6.0,8.0,77,0.00,,FEW250,0.00,VWS V14.01,2013-07-12 19:04:00,
2013-07-12 14:05:00,72.1,64.5,30.06,ESE,107,4.0,8.0,77,0.00,,FEW250,0.00,VWS V14.01,2013-07-12 19:05:00,
2013-07-12 14:09:00,72.1,65.6,30.06,ESE,114,2.0,4.0,80,0.00,,FEW250,0.00,VWS V14.01,2013-07-12 19:09:00,
2013-07-12 14:10:00,72.2,65.3,30.06,ESE,110,5.0,6.0,79,0.00,,FEW250,0.00,VWS V14.01,2013-07-12 19:10:00,
2013-07-12 14:14:00,72.2,65.0,30.07,ESE,107,3.0,7.0,78,0.00,,FEW250,0.00,VWS V14.01,2013-07-12 19:14:00,
2013-07-12 14:15:00,72.2,65.0,30.07,ESE,107,2.0,7.0,78,0.00,,FEW250,0.00,VWS V14.01,2013-07-12 19:15:00,
2013-07-12 14:19:00,72.3,65.8,30.07,ESE,114,0.0,7.0,80,0.00,,FEW250,0.00,VWS V14.01,2013-07-12 19:19:00,
2013-07-12 14:20:00,72.3,65.8,30.07,ESE,114,0.0,7.0,80,0.00,,FEW250,0.00,VWS V14.01,2013-07-12 19:20:00,
2013-07-12 14:24:00,72.8,65.9,30.07,ESE,121,0.0,7.0,79,0.00,,FEW250,0.00,VWS V14.01,2013-07-12 19:24:00,
2013-07-12 14:25:00,72.8,65.9,30.07,ESE,121,0.0,7.0,79,0.00,,FEW250,0.00,VWS V14.01,2013-07-12 19:25:00,
2013-07-12 14:30:00,72.5,65.3,30.07,East,88,0.0,7.0,78,0.00,,FEW250,0.00,VWS V14.01,2013-07-12 19:30:00,
2013-07-12 14:35:00,72.5,65.6,30.06,East,92,0.0,7.0,79,0.00,,FEW250,0.00,VWS V14.01,2013-07-12 19:35:00,
2013-07-12 14:40:00,72.6,65.3,30.06,ESE,103,1.0,8.0,78,0.00,,FEW250,0.00,VWS V14.01,2013-07-12 19:40:00,
2013-07-12 14:45:00,72.5,65.3,30.06,East,92,3.0,7.0,78,0.00,,FEW250,0.00,VWS V14.01,2013-07-12 19:45:00,
2013-07-12 14:50:00,72.5,65.3,30.06,East,100,5.0,8.0,78,0.00,,FEW250,0.00,VWS V14.01,2013-07-12 19:50:00,
2013-07-12 14:55:00,72.6,65.3,30.06,ESE,103,5.0,8.0,78,0.00,,FEW250,0.00,VWS V14.01,2013-07-12 19:55:00,
2013-07-12 14:57:00,72.6,65.7,30.06,ESE,123,0.0,8.0,79,0.00,,FEW250,0.00,VWS V14.01,2013-07-12 19:57:00,
2013-07-12 15:00:00,72.5,64.9,30.06,East,85,0.0,7.0,77,0.00,,FEW250,0.00,VWS V14.01,2013-07-12 20:00:00,
2013-07-12 15:02:00,72.8,65.6,30.06,East,81,5.0,8.0,78,0.00,,FEW250,0.00,VWS V14.01,2013-07-12 20:02:00,
2013-07-12 15:05:00,72.8,65.6,30.06,ENE,74,5.0,8.0,78,0.00,,FEW250,0.00,VWS V14.01,2013-07-12 20:05:00,
2013-07-12 15:07:00,73.1,65.5,30.06,ESE,106,5.0,8.0,77,0.00,,FEW250,0.00,VWS V14.01,2013-07-12 20:07:00,
2013-07-12 15:10:00,73.0,65.4,30.06,ENE,67,0.0,8.0,77,0.00,,FEW250,0.00,VWS V14.01,2013-07-12 20:10:00,
2013-07-12 15:13:00,73.0,65.7,30.06,East,93,6.0,7.0,78,0.00,,FEW250,0.00,VWS V14.01,2013-07-12 20:13:00,
2013-07-12 15:15:00,73.0,65.4,30.06,East,84,6.0,7.0,77,0.00,,FEW250,0.00,VWS V14.01,2013-07-12 20:15:00,
2013-07-12 15:18:00,72.9,65.3,30.06,East,82,7.0,8.0,77,0.00,,FEW250,0.00,VWS V14.01,2013-07-12 20:18:00,
2013-07-12 15:20:00,72.8,65.6,30.06,ESE,116,5.0,7.0,78,0.00,,FEW250,0.00,VWS V14.01,2013-07-12 20:20:00,
2013-07-12 15:23:00,72.8,65.2,30.06,East,98,6.0,8.0,77,0.00,,FEW250,0.00,VWS V14.01,2013-07-12 20:23:00,
2013-07-12 15:25:00,72.6,65.3,30.06,East,96,6.0,8.0,78,0.00,,FEW250,0.00,VWS V14.01,2013-07-12 20:25:00,
2013-07-12 15:28:00,72.9,65.3,30.06,East,89,5.0,8.0,77,0.00,,FEW250,0.00,VWS V14.01,2013-07-12 20:28:00,
2013-07-12 15:30:00,72.9,65.3,30.06,East,90,3.0,7.0,77,0.00,,FEW250,0.00,VWS V14.01,2013-07-12 20:30:00,
2013-07-12 15:33:00,73.2,65.6,30.06,East,80,7.0,7.0,77,0.00,,FEW250,0.00,VWS V14.01,2013-07-12 20:33:00,
2013-07-12 15:35:00,73.1,65.1,30.06,East,82,0.0,8.0,76,0.00,,FEW250,0.00,VWS V14.01,2013-07-12 20:35:00,
2013-07-12 15:38:00,73.1,65.1,30.06,ESE,103,7.0,8.0,76,0.00,,FEW250,0.00,VWS V14.01,2013-07-12 20:38:00,
2013-07-12 15:40:00,72.8,64.8,30.06,East,90,0.0,8.0,76,0.00,,FEW250,0.00,VWS V14.01,2013-07-12 20:40:00,
2013-07-12 15:44:00,72.6,65.0,30.06,ESE,109,4.0,8.0,77,0.00,,FEW250,0.00,VWS V14.01,2013-07-12 20:44:00,
2013-07-12 15:45:00,72.5,64.9,30.06,ESE,104,4.0,8.0,77,0.00,,FEW250,0.00,VWS V14.01,2013-07-12 20:45:00,
2013-07-12 15:49:00,72.7,65.1,30.06,ESE,117,2.0,7.0,77,0.00,,FEW250,0.00,VWS V14.01,2013-07-12 20:49:00,
2013-07-12 15:50:00,72.6,65.3,30.06,ESE,111,3.0,7.0,78,0.00,,FEW250,0.00,VWS V14.01,2013-07-12 20:50:00,
2013-07-12 15:54:00,72.7,65.4,30.06,ESE,123,4.0,8.0,78,0.00,,FEW250,0.00,VWS V14.01,2013-07-12 20:54:00,
2013-07-12 15:55:00,72.7,65.4,30.06,ESE,123,4.0,8.0,78,0.00,,FEW250,0.00,VWS V14.01,2013-07-12 20:55:00,
2013-07-12 15:59:00,73.0,65.4,30.06,ESE,103,2.0,7.0,77,0.00,,FEW250,0.00,VWS V14.01,2013-07-12 20:59:00,
2013-07-12 16:00:00,73.0,65.4,30.06,ESE,103,2.0,7.0,77,0.00,,FEW250,0.00,VWS V14.01,2013-07-12 21:00:00,
2013-07-12 16:05:00,73.0,65.4,30.06,East,86,0.0,8.0,77,0.00,,FEW250,0.00,VWS V14.01,2013-07-12 21:05:00,
2013-07-12 16:10:00,72.8,65.6,30.06,ESE,117,4.0,8.0,78,0.00,,FEW250,0.00,VWS V14.01,2013-07-12 21:10:00,
2013-07-12 16:15:00,72.9,65.6,30.06,SE,126,0.0,6.0,78,0.00,,FEW250,0.00,VWS V14.01,2013-07-12 21:15:00,
2013-07-12 16:16:00,73.0,65.7,30.06,East,95,0.0,4.0,78,0.00,,FEW250,0.00,VWS V14.01,2013-07-12 21:16:00,
2013-07-12 16:20:00,73.1,65.5,30.05,East,101,3.0,7.0,77,0.00,,FEW250,0.00,VWS V14.01,2013-07-12 21:20:00,
2013-07-12 16:21:00,73.1,65.5,30.05,ESE,105,0.0,7.0,77,0.00,,FEW250,0.00,VWS V14.01,2013-07-12 21:21:00,
2013-07-12 16:25:00,73.3,65.7,30.05,East,93,3.0,5.0,77,0.00,,FEW250,0.00,VWS V14.01,2013-07-12 21:25:00,
2013-07-12 16:27:00,73.3,66.0,30.05,East,100,7.0,7.0,78,0.00,,FEW250,0.00,VWS V14.01,2013-07-12 21:27:00,
2013-07-12 16:30:00,73.0,65.4,30.05,East,94,6.0,8.0,77,0.00,,FEW250,0.00,VWS V14.01,2013-07-12 21:30:00,
2013-07-12 16:32:00,73.0,65.4,30.05,ESE,113,8.0,8.0,77,0.00,,FEW250,0.00,VWS V14.01,2013-07-12 21:32:00,
2013-07-12 16:35:00,73.0,65.4,30.05,ESE,105,4.0,8.0,77,0.00,,FEW250,0.00,VWS V14.01,2013-07-12 21:35:00,
2013-07-12 16:38:00,73.1,65.8,30.05,ESE,115,1.0,7.0,78,0.00,,FEW250,0.00,VWS V14.01,2013-07-12 21:38:00,
2013-07-12 16:40:00,73.1,65.8,30.05,East,86,7.0,7.0,78,0.00,,FEW250,0.00,VWS V14.01,2013-07-12 21:40:00,
2013-07-12 16:43:00,73.1,65.8,30.05,ESE,106,4.0,7.0,78,0.00,,FEW250,0.00,VWS V14.01,2013-07-12 21:43:00,
2013-07-12 16:45:00,73.2,65.9,30.05,East,92,5.0,7.0,78,0.00,,FEW250,0.00,VWS V14.01,2013-07-12 21:45:00,
2013-07-12 16:49:00,73.2,65.6,30.05,East,93,0.0,5.0,77,0.00,,FEW250,0.00,VWS V14.01,2013-07-12 21:49:00,
2013-07-12 16:50:00,73.2,65.6,30.05,East,93,0.0,5.0,77,0.00,,FEW250,0.00,VWS V14.01,2013-07-12 21:50:00,
2013-07-12 16:54:00,73.3,66.0,30.05,East,97,0.0,6.0,78,0.00,,FEW250,0.00,VWS V14.01,2013-07-12 21:54:00,
2013-07-12 16:55:00,73.3,66.0,30.05,East,97,0.0,6.0,78,0.00,,CLR,0.00,VWS V14.01,2013-07-12 21:55:00,
2013-07-12 16:59:00,73.2,65.6,30.05,ESE,102,1.0,6.0,77,0.00,,FEW250,0.00,VWS V14.01,2013-07-12 21:59:00,
2013-07-12 17:00:00,73.2,65.6,30.05,ESE,102,1.0,6.0,77,0.00,,CLR,0.00,VWS V14.01,2013-07-12 22:00:00,
2013-07-12 17:04:00,72.8,65.9,30.04,East,87,6.0,6.0,79,0.00,,FEW250,0.00,VWS V14.01,2013-07-12 22:04:00,
2013-07-12 17:05:00,72.8,65.9,30.04,East,87,6.0,6.0,79,0.00,,CLR,0.00,VWS V14.01,2013-07-12 22:05:00,
2013-07-12 17:10:00,72.8,65.9,30.05,ESE,107,4.0,6.0,79,0.00,,FEW250,0.00,VWS V14.01,2013-07-12 22:10:00,
2013-07-12 17:15:00,72.5,65.6,30.05,East,85,6.0,7.0,79,0.00,,FEW250,0.00,VWS V14.01,2013-07-12 22:15:00,
2013-07-12 17:16:00,72.4,65.5,30.05,East,91,0.0,7.0,79,0.00,,FEW250,0.00,VWS V14.01,2013-07-12 22:16:00,
2013-07-12 17:20:00,72.6,65.7,30.04,SE,136,4.0,5.0,79,0.00,,FEW250,0.00,VWS V14.01,2013-07-12 22:20:00,
2013-07-12 17:21:00,72.5,65.6,30.05,East,88,0.0,6.0,79,0.00,,FEW250,0.00,VWS V14.01,2013-07-12 22:21:00,
2013-07-12 17:25:00,72.6,65.7,30.04,East,98,0.0,0.0,79,0.00,,FEW250,0.00,VWS V14.01,2013-07-12 22:25:00,
2013-07-12 17:27:00,72.7,65.8,30.04,East,80,0.0,3.0,79,0.00,,FEW250,0.00,VWS V14.01,2013-07-12 22:27:00,
2013-07-12 17:30:00,72.8,65.9,30.04,ESE,123,0.0,3.0,79,0.00,,FEW250,0.00,VWS V14.01,2013-07-12 22:30:00,
2013-07-12 17:33:00,72.7,65.8,30.04,ESE,115,0.0,0.0,79,0.00,,FEW250,0.00,VWS V14.01,2013-07-12 22:33:00,
2013-07-12 17:35:00,72.6,65.7,30.04,ESE,103,0.0,5.0,79,0.00,,FEW250,0.00,VWS V14.01,2013-07-12 22:35:00,
2013-07-12 17:38:00,72.6,65.7,30.04,ESE,119,0.0,5.0,79,0.00,,FEW250,0.00,VWS V14.01,2013-07-12 22:38:00,
2013-07-12 17:40:00,72.6,66.1,30.04,ESE,121,0.0,5.0,80,0.00,,FEW250,0.00,VWS V14.01,2013-07-12 22:40:00,
2013-07-12 17:43:00,72.6,66.4,30.04,ESE,115,0.0,3.0,81,0.00,,FEW250,0.00,VWS V14.01,2013-07-12 22:43:00,
2013-07-12 17:45:00,72.6,66.1,30.04,ESE,120,2.0,3.0,80,0.00,,FEW250,0.00,VWS V14.01,2013-07-12 22:45:00,
2013-07-12 17:49:00,72.5,66.3,30.03,SE,132,0.0,4.0,81,0.00,,FEW250,0.00,VWS V14.01,2013-07-12 22:49:00,
2013-07-12 17:50:00,72.5,66.3,30.03,ESE,118,0.0,4.0,81,0.00,,FEW250,0.00,VWS V14.01,2013-07-12 22:50:00,
2013-07-12 17:54:00,72.0,66.2,30.03,SE,129,3.0,5.0,82,0.00,,FEW250,0.00,VWS V14.01,2013-07-12 22:54:00,
2013-07-12 17:55:00,72.0,66.2,30.03,ESE,115,2.0,5.0,82,0.00,,FEW250,0.00,VWS V14.01,2013-07-12 22:55:00,
2013-07-12 17:59:00,71.9,66.1,30.03,SE,126,0.0,6.0,82,0.00,,FEW250,0.00,VWS V14.01,2013-07-12 22:59:00,
2013-07-12 18:00:00,71.9,66.1,30.03,SE,126,0.0,5.0,82,0.00,,FEW250,0.00,VWS V14.01,2013-07-12 23:00:00,
2013-07-12 18:04:00,71.9,66.5,30.03,ESE,118,0.0,7.0,83,0.00,,FEW250,0.00,VWS V14.01,2013-07-12 23:04:00,
2013-07-12 18:05:00,71.9,66.5,30.03,ESE,118,0.0,7.0,83,0.00,,CLR,0.00,VWS V14.01,2013-07-12 23:05:00,
2013-07-12 18:09:00,71.9,66.5,30.03,ESE,113,0.0,6.0,83,0.00,,FEW250,0.00,VWS V14.01,2013-07-12 23:09:00,
2013-07-12 18:10:00,71.9,66.5,30.03,ESE,113,0.0,6.0,83,0.00,,FEW250,0.00,VWS V14.01,2013-07-12 23:10:00,
2013-07-12 18:14:00,71.9,66.5,30.03,ESE,123,3.0,8.0,83,0.00,,FEW250,0.00,VWS V14.01,2013-07-12 23:14:00,
2013-07-12 18:15:00,71.9,66.5,30.03,ESE,123,3.0,8.0,83,0.00,,FEW250,0.00,VWS V14.01,2013-07-12 23:15:00,
2013-07-12 18:19:00,71.4,66.3,30.03,ESE,120,2.0,4.0,84,0.00,,FEW250,0.00,VWS V14.01,2013-07-12 23:19:00,
2013-07-12 18:20:00,71.4,66.3,30.03,ESE,120,2.0,4.0,84,0.00,,FEW250,0.00,VWS V14.01,2013-07-12 23:20:00,
2013-07-12 18:24:00,71.0,66.3,30.03,SE,126,0.0,5.0,85,0.00,,FEW250,0.00,VWS V14.01,2013-07-12 23:24:00,
2013-07-12 18:25:00,71.0,66.3,30.03,SE,126,0.0,5.0,85,0.00,,CLR,0.00,VWS V14.01,2013-07-12 23:25:00,
2013-07-12 18:30:00,70.7,66.0,30.03,ESE,109,0.0,4.0,85,0.00,,FEW250,0.00,VWS V14.01,2013-07-12 23:30:00,
2013-07-12 18:35:00,70.4,66.0,30.03,ESE,122,0.0,8.0,86,0.00,,FEW250,0.00,VWS V14.01,2013-07-12 23:35:00,
2013-07-12 18:37:00,70.4,66.0,30.03,ESE,122,0.0,5.0,86,0.00,,FEW250,0.00,VWS V14.01,2013-07-12 23:37:00,
2013-07-12 18:40:00,70.1,66.1,30.03,ESE,112,2.0,5.0,87,0.00,,FEW250,0.00,VWS V14.01,2013-07-12 23:40:00,
2013-07-12 18:42:00,70.1,66.1,30.03,ESE,115,0.0,7.0,87,0.00,,FEW250,0.00,VWS V14.01,2013-07-12 23:42:00,
2013-07-12 18:45:00,70.1,66.4,30.03,ESE,115,0.0,7.0,88,0.00,,FEW250,0.00,VWS V14.01,2013-07-12 23:45:00,
2013-07-12 18:47:00,70.1,66.1,30.03,SE,135,0.0,2.0,87,0.00,,FEW250,0.00,VWS V14.01,2013-07-12 23:47:00,
2013-07-12 18:50:00,70.1,66.1,30.03,SE,135,0.0,2.0,87,0.00,,FEW250,0.00,VWS V14.01,2013-07-12 23:50:00,
2013-07-12 18:52:00,70.2,66.2,30.03,ESE,119,0.0,0.0,87,0.00,,FEW250,0.00,VWS V14.01,2013-07-12 23:52:00,
2013-07-12 18:55:00,70.1,66.1,30.03,ESE,119,0.0,3.0,87,0.00,,FEW250,0.00,VWS V14.01,2013-07-12 23:55:00,
2013-07-12 18:57:00,70.1,66.1,30.03,ESE,119,0.0,0.0,87,0.00,,FEW250,0.00,VWS V14.01,2013-07-12 23:57:00,
2013-07-12 19:00:00,70.1,66.1,30.03,ESE,119,0.0,3.0,87,0.00,,FEW250,0.00,VWS V14.01,2013-07-13 00:00:00,
2013-07-12 19:03:00,70.2,66.2,30.03,ESE,119,0.0,3.0,87,0.00,,SCT250,0.00,VWS V14.01,2013-07-13 00:03:00,
2013-07-12 19:05:00,70.2,66.2,30.03,ESE,119,0.0,0.0,87,0.00,,FEW250,0.00,VWS V14.01,2013-07-13 00:05:00,
2013-07-12 19:08:00,70.2,66.2,30.03,ESE,119,0.0,0.0,87,0.00,,SCT250,0.00,VWS V14.01,2013-07-13 00:08:00,
2013-07-12 19:10:00,70.1,66.1,30.03,ESE,119,0.0,0.0,87,0.00,,FEW250,0.00,VWS V14.01,2013-07-13 00:10:00,
2013-07-12 19:13:00,70.1,66.1,30.03,ESE,119,0.0,0.0,87,0.00,,SCT250,0.00,VWS V14.01,2013-07-13 00:13:00,
2013-07-12 19:15:00,70.1,66.1,30.03,ESE,119,0.0,0.0,87,0.00,,FEW250,0.00,VWS V14.01,2013-07-13 00:15:00,
2013-07-12 19:18:00,70.3,66.2,30.03,ESE,119,0.0,0.0,87,0.00,,SCT250,0.00,VWS V14.01,2013-07-13 00:18:00,
2013-07-12 19:20:00,70.3,66.2,30.03,ESE,119,0.0,0.0,87,0.00,,FEW250,0.00,VWS V14.01,2013-07-13 00:20:00,
2013-07-12 19:23:00,70.4,66.0,30.03,ESE,119,0.0,0.0,86,0.00,,SCT250,0.00,VWS V14.01,2013-07-13 00:23:00,
2013-07-12 19:25:00,70.5,66.1,30.03,ESE,119,0.0,0.0,86,0.00,,FEW250,0.00,VWS V14.01,2013-07-13 00:25:00,
2013-07-12 19:28:00,70.6,65.9,30.03,ESE,119,0.0,0.0,85,0.00,,SCT250,0.00,VWS V14.01,2013-07-13 00:28:00,
2013-07-12 19:30:00,70.7,66.0,30.03,ESE,119,0.0,0.0,85,0.00,,FEW250,0.00,VWS V14.01,2013-07-13 00:30:00,
2013-07-12 19:34:00,70.9,66.2,30.03,ESE,119,0.0,2.0,85,0.00,,SCT250,0.00,VWS V14.01,2013-07-13 00:34:00,
2013-07-12 19:35:00,70.9,66.2,30.03,ESE,119,1.0,2.0,85,0.00,,FEW250,0.00,VWS V14.01,2013-07-13 00:35:00,
2013-07-12 19:40:00,70.8,65.7,30.03,SE,124,2.0,3.0,84,0.00,,SCT250,0.00,VWS V14.01,2013-07-13 00:40:00,
2013-07-12 19:45:00,70.4,65.3,30.03,SE,124,0.0,0.0,84,0.00,,SCT250,0.00,VWS V14.01,2013-07-13 00:45:00,
2013-07-12 19:50:00,70.3,65.6,30.03,SE,124,0.0,0.0,85,0.00,,FEW250,0.00,VWS V14.01,2013-07-13 00:50:00,
2013-07-12 19:51:00,70.2,65.5,30.03,SE,124,0.0,0.0,85,0.00,,SCT250,0.00,VWS V14.01,2013-07-13 00:51:00,
2013-07-12 19:55:00,70.0,64.9,30.03,SE,124,0.0,0.0,84,0.00,,FEW250,0.00,VWS V14.01,2013-07-13 00:55:00,
2013-07-12 19:56:00,70.0,64.9,30.03,SE,124,0.0,0.0,84,0.00,,SCT250,0.00,VWS V14.01,2013-07-13 00:56:00,
2013-07-12 20:00:00,70.0,64.6,30.03,SE,124,0.0,0.0,83,0.00,,FEW250,0.00,VWS V14.01,2013-07-13 01:00:00,
2013-07-12 20:01:00,69.9,64.5,30.03,SE,124,0.0,1.0,83,0.00,,BKN250,0.00,VWS V14.01,2013-07-13 01:01:00,
2013-07-12 20:05:00,69.9,64.5,30.03,SE,124,0.0,1.0,83,0.00,,FEW250,0.00,VWS V14.01,2013-07-13 01:05:00,
2013-07-12 20:06:00,70.0,64.6,30.03,SE,124,0.0,0.0,83,0.00,,BKN250,0.00,VWS V14.01,2013-07-13 01:06:00,
2013-07-12 20:10:00,70.0,64.3,30.03,SE,126,0.0,0.0,82,0.00,,FEW250,0.00,VWS V14.01,2013-07-13 01:10:00,
2013-07-12 20:11:00,69.9,63.5,30.03,SE,126,0.0,0.0,80,0.00,,BKN250,0.00,VWS V14.01,2013-07-13 01:11:00,
2013-07-12 20:15:00,69.8,63.0,30.03,SE,126,0.0,0.0,79,0.00,,FEW250,0.00,VWS V14.01,2013-07-13 01:15:00,
2013-07-12 20:18:00,69.7,62.5,30.03,SE,126,0.0,0.0,78,0.00,,BKN250,0.00,VWS V14.01,2013-07-13 01:18:00,
2013-07-12 20:20:00,69.7,62.5,30.03,SE,126,0.0,0.0,78,0.00,,FEW250,0.00,VWS V14.01,2013-07-13 01:20:00,
2013-07-12 20:24:00,69.5,61.6,30.03,SE,126,0.0,0.0,76,0.00,,BKN250,0.00,VWS V14.01,2013-07-13 01:24:00,
2013-07-12 20:25:00,69.5,61.6,30.03,SE,126,0.0,0.0,76,0.00,,FEW250,0.00,VWS V14.01,2013-07-13 01:25:00,
2013-07-12 20:29:00,69.4,61.1,30.03,SE,126,0.0,0.0,75,0.00,,BKN250,0.00,VWS V14.01,2013-07-13 01:29:00,
2013-07-12 20:30:00,69.3,60.7,30.03,SE,126,0.0,0.0,74,0.00,,FEW250,0.00,VWS V14.01,2013-07-13 01:30:00,
2013-07-12 20:34:00,69.3,60.7,30.03,SE,140,0.0,1.0,74,0.00,,BKN250,0.00,VWS V14.01,2013-07-13 01:34:00,
2013-07-12 20:35:00,69.3,60.7,30.03,SE,140,0.0,1.0,74,0.00,,FEW250,0.00,VWS V14.01,2013-07-13 01:35:00,
2013-07-12 20:39:00,69.4,60.8,30.03,SE,140,0.0,0.0,74,0.00,,BKN250,0.00,VWS V14.01,2013-07-13 01:39:00,
2013-07-12 20:40:00,69.4,60.8,30.03,SE,140,0.0,0.0,74,0.00,,FEW250,0.00,VWS V14.01,2013-07-13 01:40:00,
2013-07-12 20:44:00,69.3,60.7,30.03,SE,140,0.0,0.0,74,0.00,,BKN250,0.00,VWS V14.01,2013-07-13 01:44:00,
2013-07-12 20:45:00,69.3,60.7,30.03,SE,140,0.0,0.0,74,0.00,,FEW250,0.00,VWS V14.01,2013-07-13 01:45:00,
2013-07-12 20:49:00,69.4,60.8,30.04,SE,140,0.0,0.0,74,0.00,,BKN250,0.00,VWS V14.01,2013-07-13 01:49:00,
2013-07-12 20:50:00,69.4,60.8,30.04,SE,140,0.0,0.0,74,0.00,,FEW250,0.00,VWS V14.01,2013-07-13 01:50:00,
2013-07-12 20:54:00,69.4,61.1,30.04,SE,140,0.0,0.0,75,0.00,,BKN250,0.00,VWS V14.01,2013-07-13 01:54:00,
2013-07-12 20:55:00,69.4,61.1,30.04,SE,140,0.0,0.0,75,0.00,,FEW250,0.00,VWS V14.01,2013-07-13 01:55:00,
2013-07-12 20:59:00,69.3,61.0,30.04,SE,140,0.0,0.0,75,0.00,,BKN250,0.00,VWS V14.01,2013-07-13 01:59:00,
2013-07-12 21:00:00,69.3,61.0,30.04,SE,140,0.0,0.0,75,0.00,,FEW250,0.00,VWS V14.01,2013-07-13 02:00:00,
2013-07-12 21:05:00,69.2,61.0,30.04,SE,140,0.0,0.0,75,0.00,,FEW250,0.00,VWS V14.01,2013-07-13 02:05:00,
2013-07-12 21:06:00,69.2,61.0,30.04,SE,140,0.0,0.0,75,0.00,,SCT250,0.00,VWS V14.01,2013-07-13 02:06:00,
2013-07-12 21:10:00,69.0,60.8,30.04,SE,140,0.0,0.0,75,0.00,,FEW250,0.00,VWS V14.01,2013-07-13 02:10:00,
2013-07-12 21:12:00,69.0,60.8,30.04,SE,140,0.0,0.0,75,0.00,,SCT250,0.00,VWS V14.01,2013-07-13 02:12:00,
2013-07-12 21:15:00,68.7,60.5,30.04,SE,140,0.0,0.0,75,0.00,,FEW250,0.00,VWS V14.01,2013-07-13 02:15:00,
2013-07-12 21:17:00,68.5,60.3,30.04,SE,140,0.0,0.0,75,0.00,,SCT250,0.00,VWS V14.01,2013-07-13 02:17:00,
2013-07-12 21:20:00,68.3,59.7,30.04,SE,140,0.0,0.0,74,0.00,,FEW250,0.00,VWS V14.01,2013-07-13 02:20:00,
2013-07-12 21:22:00,68.1,59.1,30.04,SE,140,0.0,0.0,73,0.00,,SCT250,0.00,VWS V14.01,2013-07-13 02:22:00,
2013-07-12 21:25:00,68.1,59.5,30.05,SE,140,0.0,0.0,74,0.00,,FEW250,0.00,VWS V14.01,2013-07-13 02:25:00,
2013-07-12 21:28:00,68.1,59.9,30.05,SE,140,0.0,0.0,75,0.00,,SCT250,0.00,VWS V14.01,2013-07-13 02:28:00,
2013-07-12 21:30:00,68.1,59.9,30.05,SE,140,0.0,0.0,75,0.00,,CLR,0.00,VWS V14.01,2013-07-13 02:30:00,
2013-07-12 21:34:00,68.4,60.2,30.05,SE,140,0.0,0.0,75,0.00,,SCT250,0.00,VWS V14.01,2013-07-13 02:34:00,
2013-07-12 21:35:00,68.4,60.2,30.05,SE,140,0.0,0.0,75,0.00,,FEW250,0.00,VWS V14.01,2013-07-13 02:35:00,
2013-07-12 21:39:00,68.4,60.5,30.04,SE,140,0.0,0.0,76,0.00,,SCT250,0.00,VWS V14.01,2013-07-13 02:39:00,
2013-07-12 21:40:00,68.4,60.5,30.04,SE,140,0.0,0.0,76,0.00,,FEW250,0.00,VWS V14.01,2013-07-13 02:40:00,
2013-07-12 21:44:00,68.1,60.3,30.04,SE,140,0.0,0.0,76,0.00,,SCT250,0.00,VWS V14.01,2013-07-13 02:44:00,
2013-07-12 21:45:00,68.1,60.3,30.04,SE,140,0.0,0.0,76,0.00,,FEW250,0.00,VWS V14.01,2013-07-13 02:45:00,
2013-07-12 21:49:00,67.9,60.4,30.04,SE,140,0.0,0.0,77,0.00,,SCT250,0.00,VWS V14.01,2013-07-13 02:49:00,
2013-07-12 21:50:00,67.9,60.4,30.04,SE,140,0.0,0.0,77,0.00,,CLR,0.00,VWS V14.01,2013-07-13 02:50:00,
2013-07-12 21:55:00,67.6,60.5,30.04,SE,140,0.0,0.0,78,0.00,,SCT250,0.00,VWS V14.01,2013-07-13 02:55:00,
2013-07-12 22:00:00,67.4,60.3,30.04,SE,140,0.0,0.0,78,0.00,,FEW250,0.00,VWS V14.01,2013-07-13 03:00:00,
2013-07-12 22:01:00,67.3,60.6,30.04,SE,140,0.0,0.0,79,0.00,,CLR,0.00,VWS V14.01,2013-07-13 03:01:00,
2013-07-12 22:05:00,67.2,60.5,30.04,SE,140,0.0,0.0,79,0.00,,FEW250,0.00,VWS V14.01,2013-07-13 03:05:00,
2013-07-12 22:06:00,67.2,60.5,30.04,SE,140,0.0,0.0,79,0.00,,CLR,0.00,VWS V14.01,2013-07-13 03:06:00,
2013-07-12 22:10:00,67.1,60.0,30.04,SE,140,0.0,0.0,78,0.00,,FEW250,0.00,VWS V14.01,2013-07-13 03:10:00,
2013-07-12 22:11:00,67.0,59.9,30.04,SE,140,0.0,0.0,78,0.00,,CLR,0.00,VWS V14.01,2013-07-13 03:11:00,
2013-07-12 22:15:00,66.9,59.8,30.04,SE,140,0.0,0.0,78,0.00,,CLR,0.00,VWS V14.01,2013-07-13 03:15:00,
2013-07-12 22:17:00,66.7,59.3,30.04,SE,140,0.0,0.0,77,0.00,,CLR,0.00,VWS V14.01,2013-07-13 03:17:00,
2013-07-12 22:20:00,66.6,58.4,30.04,SE,140,0.0,0.0,75,0.00,,CLR,0.00,VWS V14.01,2013-07-13 03:20:00,
2013-07-12 22:23:00,66.4,57.9,30.04,SE,140,0.0,0.0,74,0.00,,CLR,0.00,VWS V14.01,2013-07-13 03:23:00,
2013-07-12 22:25:00,66.3,57.8,30.04,SE,140,0.0,0.0,74,0.00,,FEW250,0.00,VWS V14.01,2013-07-13 03:25:00,
2013-07-12 22:28:00,66.5,58.7,30.04,SE,140,0.0,0.0,76,0.00,,CLR,0.00,VWS V14.01,2013-07-13 03:28:00,
2013-07-12 22:30:00,66.5,59.1,30.04,SE,140,0.0,0.0,77,0.00,,FEW250,0.00,VWS V14.01,2013-07-13 03:30:00,
2013-07-12 22:33:00,66.6,58.8,30.04,SE,140,0.0,0.0,76,0.00,,CLR,0.00,VWS V14.01,2013-07-13 03:33:00,
2013-07-12 22:35:00,66.6,58.8,30.04,SE,140,0.0,0.0,76,0.00,,FEW250,0.00,VWS V14.01,2013-07-13 03:35:00,
2013-07-12 22:39:00,66.7,59.3,30.04,SE,140,0.0,0.0,77,0.00,,CLR,0.00,VWS V14.01,2013-07-13 03:39:00,
2013-07-12 22:40:00,66.7,59.3,30.04,SE,140,0.0,0.0,77,0.00,,FEW250,0.00,VWS V14.01,2013-07-13 03:40:00,
2013-07-12 22:44:00,66.7,59.3,30.04,SE,140,0.0,0.0,77,0.00,,CLR,0.00,VWS V14.01,2013-07-13 03:44:00,
2013-07-12 22:45:00,66.8,59.4,30.04,SE,140,0.0,0.0,77,0.00,,FEW250,0.00,VWS V14.01,2013-07-13 03:45:00,
2013-07-12 22:49:00,66.8,59.4,30.04,SE,140,0.0,0.0,77,0.00,,CLR,0.00,VWS V14.01,2013-07-13 03:49:00,
2013-07-12 22:50:00,66.8,59.4,30.04,SE,140,0.0,0.0,77,0.00,,FEW250,0.00,VWS V14.01,2013-07-13 03:50:00,
2013-07-12 22:54:00,66.8,59.0,30.04,SE,140,0.0,0.0,76,0.00,,CLR,0.00,VWS V14.01,2013-07-13 03:54:00,
2013-07-12 22:55:00,66.8,59.0,30.04,SE,140,0.0,0.0,76,0.00,,FEW250,0.00,VWS V14.01,2013-07-13 03:55:00,
2013-07-12 22:59:00,66.8,58.6,30.03,SE,140,0.0,0.0,75,0.00,,CLR,0.00,VWS V14.01,2013-07-13 03:59:00,
2013-07-12 23:00:00,66.8,58.6,30.03,SE,140,0.0,0.0,75,0.00,,FEW250,0.00,VWS V14.01,2013-07-13 04:00:00,
2013-07-12 23:01:00,66.8,59.0,30.04,SE,140,0.0,0.0,76,0.00,,CLR,0.00,VWS V14.01,2013-07-13 04:01:00,
2013-07-12 23:02:00,66.7,58.9,30.04,SE,140,0.0,0.0,76,0.00,,CLR,0.00,VWS V14.01,2013-07-13 04:02:00,
2013-07-12 23:03:00,66.7,59.3,30.04,SE,140,0.0,0.0,77,0.00,,CLR,0.00,VWS V14.01,2013-07-13 04:03:00,
2013-07-12 23:04:00,66.6,59.5,30.04,SE,140,0.0,0.0,78,0.00,,CLR,0.00,VWS V14.01,2013-07-13 04:04:00,
2013-07-12 23:05:00,66.6,59.5,30.04,SE,140,0.0,0.0,78,0.00,,FEW250,0.00,VWS V14.01,2013-07-13 04:05:00,
2013-07-12 23:06:00,66.5,59.4,30.04,SE,140,0.0,0.0,78,0.00,,CLR,0.00,VWS V14.01,2013-07-13 04:06:00,
2013-07-12 23:10:00,66.1,59.4,30.04,SE,140,0.0,0.0,79,0.00,,FEW250,0.00,VWS V14.01,2013-07-13 04:10:00,
2013-07-12 23:11:00,66.0,59.3,30.03,SE,140,0.0,0.0,79,0.00,,CLR,0.00,VWS V14.01,2013-07-13 04:11:00,
2013-07-12 23:15:00,65.7,58.7,30.03,SE,140,0.0,0.0,78,0.00,,FEW250,0.00,VWS V14.01,2013-07-13 04:15:00,
2013-07-12 23:16:00,65.7,58.7,30.04,SE,140,0.0,0.0,78,0.00,,CLR,0.00,VWS V14.01,2013-07-13 04:16:00,
2013-07-12 23:20:00,65.6,58.2,30.04,SE,140,0.0,0.0,77,0.00,,FEW250,0.00,VWS V14.01,2013-07-13 04:20:00,
2013-07-12 23:21:00,65.6,58.2,30.04,SE,140,0.0,0.0,77,0.00,,CLR,0.00,VWS V14.01,2013-07-13 04:21:00,
2013-07-12 23:25:00,65.7,58.3,30.04,SE,140,0.0,0.0,77,0.00,,FEW250,0.00,VWS V14.01,2013-07-13 04:25:00,
2013-07-12 23:26:00,65.7,57.9,30.04,SE,140,0.0,0.0,76,0.00,,CLR,0.00,VWS V14.01,2013-07-13 04:26:00,
2013-07-12 23:30:00,65.8,58.0,30.04,SE,140,0.0,0.0,76,0.00,,FEW250,0.00,VWS V14.01,2013-07-13 04:30:00,
2013-07-12 23:31:00,65.7,58.3,30.03,SE,140,0.0,0.0,77,0.00,,CLR,0.00,VWS V14.01,2013-07-13 04:31:00,
2013-07-12 23:35:00,65.7,57.9,30.03,SE,140,0.0,0.0,76,0.00,,FEW250,0.00,VWS V14.01,2013-07-13 04:35:00,
2013-07-12 23:36:00,65.6,58.2,30.03,SE,140,0.0,0.0,77,0.00,,CLR,0.00,VWS V14.01,2013-07-13 04:36:00,
2013-07-12 23:40:00,65.6,58.2,30.03,SE,140,0.0,0.0,77,0.00,,FEW250,0.00,VWS V14.01,2013-07-13 04:40:00,
2013-07-12 23:41:00,65.6,58.2,30.03,SE,140,0.0,0.0,77,0.00,,CLR,0.00,VWS V14.01,2013-07-13 04:41:00,
2013-07-12 23:45:00,65.5,58.1,30.03,SE,140,0.0,0.0,77,0.00,,FEW250,0.00,VWS V14.01,2013-07-13 04:45:00,
2013-07-12 23:46:00,65.4,58.0,30.03,SE,140,0.0,0.0,77,0.00,,CLR,0.00,VWS V14.01,2013-07-13 04:46:00,
2013-07-12 23:50:00,65.3,57.5,30.03,SE,140,0.0,0.0,76,0.00,,FEW250,0.00,VWS V14.01,2013-07-13 04:50:00,
2013-07-12 23:51:00,65.2,57.5,30.03,SE,140,0.0,0.0,76,0.00,,CLR,0.00,VWS V14.01,2013-07-13 04:51:00,
2013-07-12 23:55:00,65.0,56.9,30.03,SE,140,0.0,0.0,75,0.00,,FEW250,0.00,VWS V14.01,2013-07-13 04:55:00,
2013-07-12 23:56:00,64.9,57.5,30.03,SE,140,0.0,0.0,77,0.00,,CLR,0.00,VWS V14.01,2013-07-13 04:56:00,